Location: Rancho Del Sol Observatory
(38.7214°N, 120.6350°W)
Time: 03:24:04
(UTC-08:00)

Courier 1B Rocket - Pass Details

Date: 30 January 2020
Orbit: 920 x 1202 km, 28.2° (Epoch: 25 February)

Event Time Altitude Azimuth Distance (km) Brightness Sun altitude
Rises 10:22:21 0° 244° (WSW) 4,067 8.2 27.7°
Reaches altitude 10° 10:25:30 10° 236° (SW) 3,080 7.7 28.0°
Maximum altitude 10:32:15 35° 174° (S) 1,739 8.0 28.6°
Drops below altitude 10° 10:38:40 10° 111° (ESE) 2,920 8.3 29.2°
Sets 10:41:34 0° 103° (ESE) 3,830 8.6 29.5°
